<?xml version="1.0"?>
<gpx xmlns="http://www.topografix.com/GPX/1/1" xmlns:xsi="http://www.w3.org/2001/XMLSchema-instance" version="1.1" creator="GPX RubyGem 1.0.0 -- http://dougfales.github.io/gpx/" xsi:schemaLocation="http://www.topografix.com/GPX/1/1 http://www.topografix.com/GPX/1/1/gpx.xsd">
  <metadata>
    <name/>
    <time>2026-05-07T18:53:37+00:00</time>
    <bound minlat="90.0" minlon="180.0" maxlat="-90.0" maxlon="-180.0"/>
  </metadata>
  <trk>
    <name/>
    <trkseg>
      <trkpt lat="47.243752" lon="13.196342">
        <time>1970-01-01T00:00:00+00:00</time>
        <ele>874.0</ele>
      </trkpt>
      <trkpt lat="47.243679" lon="13.196179">
        <time>1970-01-01T00:00:00+00:00</time>
        <ele>874.0</ele>
      </trkpt>
      <trkpt lat="47.243678" lon="13.196135">
        <time>1970-01-01T00:00:00+00:00</time>
        <ele>874.0</ele>
      </trkpt>
      <trkpt lat="47.243706" lon="13.196053">
        <time>1970-01-01T00:00:00+00:00</time>
        <ele>875.0</ele>
      </trkpt>
      <trkpt lat="47.243962" lon="13.195934">
        <time>1970-01-01T00:00:00+00:00</time>
        <ele>875.0</ele>
      </trkpt>
      <trkpt lat="47.244033" lon="13.195897">
        <time>1970-01-01T00:00:00+00:00</time>
        <ele>875.0</ele>
      </trkpt>
      <trkpt lat="47.244053" lon="13.195822">
        <time>1970-01-01T00:00:00+00:00</time>
        <ele>876.0</ele>
      </trkpt>
      <trkpt lat="47.244085" lon="13.195792">
        <time>1970-01-01T00:00:00+00:00</time>
        <ele>875.0</ele>
      </trkpt>
      <trkpt lat="47.244074" lon="13.195752">
        <time>1970-01-01T00:00:00+00:00</time>
        <ele>875.0</ele>
      </trkpt>
      <trkpt lat="47.244107" lon="13.195723">
        <time>1970-01-01T00:00:00+00:00</time>
        <ele>875.0</ele>
      </trkpt>
      <trkpt lat="47.244103" lon="13.195559">
        <time>1970-01-01T00:00:00+00:00</time>
        <ele>875.0</ele>
      </trkpt>
      <trkpt lat="47.244119" lon="13.195518">
        <time>1970-01-01T00:00:00+00:00</time>
        <ele>875.0</ele>
      </trkpt>
      <trkpt lat="47.244314" lon="13.195479">
        <time>1970-01-01T00:00:00+00:00</time>
        <ele>875.0</ele>
      </trkpt>
      <trkpt lat="47.24434" lon="13.195438">
        <time>1970-01-01T00:00:00+00:00</time>
        <ele>876.0</ele>
      </trkpt>
      <trkpt lat="47.244374" lon="13.195475">
        <time>1970-01-01T00:00:00+00:00</time>
        <ele>876.0</ele>
      </trkpt>
      <trkpt lat="47.244553" lon="13.19545">
        <time>1970-01-01T00:00:00+00:00</time>
        <ele>877.0</ele>
      </trkpt>
      <trkpt lat="47.244553" lon="13.195373">
        <time>1970-01-01T00:00:00+00:00</time>
        <ele>877.0</ele>
      </trkpt>
      <trkpt lat="47.244718" lon="13.195349">
        <time>1970-01-01T00:00:00+00:00</time>
        <ele>878.0</ele>
      </trkpt>
      <trkpt lat="47.245112" lon="13.195325">
        <time>1970-01-01T00:00:00+00:00</time>
        <ele>882.0</ele>
      </trkpt>
      <trkpt lat="47.245273" lon="13.19537">
        <time>1970-01-01T00:00:00+00:00</time>
        <ele>884.0</ele>
      </trkpt>
      <trkpt lat="47.245471" lon="13.195357">
        <time>1970-01-01T00:00:00+00:00</time>
        <ele>885.0</ele>
      </trkpt>
      <trkpt lat="47.245626" lon="13.195326">
        <time>1970-01-01T00:00:00+00:00</time>
        <ele>885.0</ele>
      </trkpt>
      <trkpt lat="47.245755" lon="13.195302">
        <time>1970-01-01T00:00:00+00:00</time>
        <ele>886.0</ele>
      </trkpt>
      <trkpt lat="47.246044" lon="13.195299">
        <time>1970-01-01T00:00:00+00:00</time>
        <ele>888.0</ele>
      </trkpt>
      <trkpt lat="47.246046" lon="13.195255">
        <time>1970-01-01T00:00:00+00:00</time>
        <ele>889.0</ele>
      </trkpt>
      <trkpt lat="47.24637" lon="13.195189">
        <time>1970-01-01T00:00:00+00:00</time>
        <ele>892.0</ele>
      </trkpt>
      <trkpt lat="47.24707" lon="13.19524">
        <time>1970-01-01T00:00:00+00:00</time>
        <ele>897.0</ele>
      </trkpt>
      <trkpt lat="47.247448" lon="13.195127">
        <time>1970-01-01T00:00:00+00:00</time>
        <ele>900.0</ele>
      </trkpt>
      <trkpt lat="47.247637" lon="13.195154">
        <time>1970-01-01T00:00:00+00:00</time>
        <ele>901.0</ele>
      </trkpt>
      <trkpt lat="47.247517" lon="13.19459">
        <time>1970-01-01T00:00:00+00:00</time>
        <ele>905.0</ele>
      </trkpt>
      <trkpt lat="47.247479" lon="13.194269">
        <time>1970-01-01T00:00:00+00:00</time>
        <ele>907.0</ele>
      </trkpt>
      <trkpt lat="47.247507" lon="13.193473">
        <time>1970-01-01T00:00:00+00:00</time>
        <ele>912.0</ele>
      </trkpt>
      <trkpt lat="47.247526" lon="13.192655">
        <time>1970-01-01T00:00:00+00:00</time>
        <ele>922.0</ele>
      </trkpt>
      <trkpt lat="47.247544" lon="13.192389">
        <time>1970-01-01T00:00:00+00:00</time>
        <ele>926.0</ele>
      </trkpt>
      <trkpt lat="47.247604" lon="13.191999">
        <time>1970-01-01T00:00:00+00:00</time>
        <ele>930.0</ele>
      </trkpt>
      <trkpt lat="47.247646" lon="13.191853">
        <time>1970-01-01T00:00:00+00:00</time>
        <ele>931.0</ele>
      </trkpt>
      <trkpt lat="47.247722" lon="13.191618">
        <time>1970-01-01T00:00:00+00:00</time>
        <ele>933.0</ele>
      </trkpt>
      <trkpt lat="47.247741" lon="13.191282">
        <time>1970-01-01T00:00:00+00:00</time>
        <ele>939.0</ele>
      </trkpt>
      <trkpt lat="47.247732" lon="13.191239">
        <time>1970-01-01T00:00:00+00:00</time>
        <ele>939.0</ele>
      </trkpt>
      <trkpt lat="47.247673" lon="13.191189">
        <time>1970-01-01T00:00:00+00:00</time>
        <ele>941.0</ele>
      </trkpt>
      <trkpt lat="47.247567" lon="13.191199">
        <time>1970-01-01T00:00:00+00:00</time>
        <ele>943.0</ele>
      </trkpt>
      <trkpt lat="47.247344" lon="13.191268">
        <time>1970-01-01T00:00:00+00:00</time>
        <ele>948.0</ele>
      </trkpt>
      <trkpt lat="47.247283" lon="13.191326">
        <time>1970-01-01T00:00:00+00:00</time>
        <ele>950.0</ele>
      </trkpt>
      <trkpt lat="47.247244" lon="13.191376">
        <time>1970-01-01T00:00:00+00:00</time>
        <ele>951.0</ele>
      </trkpt>
      <trkpt lat="47.247204" lon="13.191545">
        <time>1970-01-01T00:00:00+00:00</time>
        <ele>950.0</ele>
      </trkpt>
      <trkpt lat="47.247176" lon="13.191515">
        <time>1970-01-01T00:00:00+00:00</time>
        <ele>952.0</ele>
      </trkpt>
      <trkpt lat="47.247166" lon="13.191376">
        <time>1970-01-01T00:00:00+00:00</time>
        <ele>955.0</ele>
      </trkpt>
      <trkpt lat="47.247248" lon="13.190884">
        <time>1970-01-01T00:00:00+00:00</time>
        <ele>956.0</ele>
      </trkpt>
      <trkpt lat="47.247228" lon="13.190606">
        <time>1970-01-01T00:00:00+00:00</time>
        <ele>960.0</ele>
      </trkpt>
      <trkpt lat="47.247226" lon="13.190156">
        <time>1970-01-01T00:00:00+00:00</time>
        <ele>962.0</ele>
      </trkpt>
      <trkpt lat="47.247278" lon="13.189745">
        <time>1970-01-01T00:00:00+00:00</time>
        <ele>964.0</ele>
      </trkpt>
      <trkpt lat="47.247275" lon="13.189636">
        <time>1970-01-01T00:00:00+00:00</time>
        <ele>965.0</ele>
      </trkpt>
      <trkpt lat="47.247238" lon="13.189432">
        <time>1970-01-01T00:00:00+00:00</time>
        <ele>968.0</ele>
      </trkpt>
      <trkpt lat="47.247176" lon="13.18924">
        <time>1970-01-01T00:00:00+00:00</time>
        <ele>973.0</ele>
      </trkpt>
      <trkpt lat="47.247091" lon="13.189056">
        <time>1970-01-01T00:00:00+00:00</time>
        <ele>979.0</ele>
      </trkpt>
      <trkpt lat="47.246989" lon="13.188942">
        <time>1970-01-01T00:00:00+00:00</time>
        <ele>986.0</ele>
      </trkpt>
      <trkpt lat="47.24683" lon="13.188827">
        <time>1970-01-01T00:00:00+00:00</time>
        <ele>993.0</ele>
      </trkpt>
      <trkpt lat="47.246735" lon="13.188721">
        <time>1970-01-01T00:00:00+00:00</time>
        <ele>997.0</ele>
      </trkpt>
      <trkpt lat="47.246504" lon="13.188297">
        <time>1970-01-01T00:00:00+00:00</time>
        <ele>1011.0</ele>
      </trkpt>
      <trkpt lat="47.246486" lon="13.188219">
        <time>1970-01-01T00:00:00+00:00</time>
        <ele>1014.0</ele>
      </trkpt>
      <trkpt lat="47.246489" lon="13.18815">
        <time>1970-01-01T00:00:00+00:00</time>
        <ele>1015.0</ele>
      </trkpt>
      <trkpt lat="47.246531" lon="13.188091">
        <time>1970-01-01T00:00:00+00:00</time>
        <ele>1015.0</ele>
      </trkpt>
      <trkpt lat="47.246605" lon="13.187862">
        <time>1970-01-01T00:00:00+00:00</time>
        <ele>1017.0</ele>
      </trkpt>
      <trkpt lat="47.246591" lon="13.187815">
        <time>1970-01-01T00:00:00+00:00</time>
        <ele>1019.0</ele>
      </trkpt>
      <trkpt lat="47.246555" lon="13.187786">
        <time>1970-01-01T00:00:00+00:00</time>
        <ele>1020.0</ele>
      </trkpt>
      <trkpt lat="47.246311" lon="13.187835">
        <time>1970-01-01T00:00:00+00:00</time>
        <ele>1027.0</ele>
      </trkpt>
      <trkpt lat="47.246182" lon="13.187894">
        <time>1970-01-01T00:00:00+00:00</time>
        <ele>1031.0</ele>
      </trkpt>
      <trkpt lat="47.245926" lon="13.188069">
        <time>1970-01-01T00:00:00+00:00</time>
        <ele>1039.0</ele>
      </trkpt>
      <trkpt lat="47.245706" lon="13.188118">
        <time>1970-01-01T00:00:00+00:00</time>
        <ele>1047.0</ele>
      </trkpt>
      <trkpt lat="47.245495" lon="13.188243">
        <time>1970-01-01T00:00:00+00:00</time>
        <ele>1051.0</ele>
      </trkpt>
      <trkpt lat="47.245449" lon="13.188215">
        <time>1970-01-01T00:00:00+00:00</time>
        <ele>1053.0</ele>
      </trkpt>
      <trkpt lat="47.245453" lon="13.188051">
        <time>1970-01-01T00:00:00+00:00</time>
        <ele>1056.0</ele>
      </trkpt>
      <trkpt lat="47.245515" lon="13.187246">
        <time>1970-01-01T00:00:00+00:00</time>
        <ele>1072.0</ele>
      </trkpt>
      <trkpt lat="47.245555" lon="13.186916">
        <time>1970-01-01T00:00:00+00:00</time>
        <ele>1077.0</ele>
      </trkpt>
      <trkpt lat="47.245549" lon="13.18678">
        <time>1970-01-01T00:00:00+00:00</time>
        <ele>1081.0</ele>
      </trkpt>
      <trkpt lat="47.245569" lon="13.186449">
        <time>1970-01-01T00:00:00+00:00</time>
        <ele>1085.0</ele>
      </trkpt>
      <trkpt lat="47.245549" lon="13.186404">
        <time>1970-01-01T00:00:00+00:00</time>
        <ele>1087.0</ele>
      </trkpt>
      <trkpt lat="47.245461" lon="13.186322">
        <time>1970-01-01T00:00:00+00:00</time>
        <ele>1093.0</ele>
      </trkpt>
      <trkpt lat="47.245341" lon="13.186247">
        <time>1970-01-01T00:00:00+00:00</time>
        <ele>1100.0</ele>
      </trkpt>
      <trkpt lat="47.245276" lon="13.186258">
        <time>1970-01-01T00:00:00+00:00</time>
        <ele>1104.0</ele>
      </trkpt>
      <trkpt lat="47.245214" lon="13.186308">
        <time>1970-01-01T00:00:00+00:00</time>
        <ele>1107.0</ele>
      </trkpt>
      <trkpt lat="47.245045" lon="13.186573">
        <time>1970-01-01T00:00:00+00:00</time>
        <ele>1111.0</ele>
      </trkpt>
      <trkpt lat="47.244692" lon="13.186934">
        <time>1970-01-01T00:00:00+00:00</time>
        <ele>1112.0</ele>
      </trkpt>
      <trkpt lat="47.244466" lon="13.187104">
        <time>1970-01-01T00:00:00+00:00</time>
        <ele>1114.0</ele>
      </trkpt>
      <trkpt lat="47.244373" lon="13.187092">
        <time>1970-01-01T00:00:00+00:00</time>
        <ele>1116.0</ele>
      </trkpt>
      <trkpt lat="47.244322" lon="13.186972">
        <time>1970-01-01T00:00:00+00:00</time>
        <ele>1120.0</ele>
      </trkpt>
      <trkpt lat="47.244311" lon="13.18687">
        <time>1970-01-01T00:00:00+00:00</time>
        <ele>1123.0</ele>
      </trkpt>
      <trkpt lat="47.244354" lon="13.186648">
        <time>1970-01-01T00:00:00+00:00</time>
        <ele>1128.0</ele>
      </trkpt>
      <trkpt lat="47.2445" lon="13.186293">
        <time>1970-01-01T00:00:00+00:00</time>
        <ele>1131.0</ele>
      </trkpt>
      <trkpt lat="47.24455" lon="13.186087">
        <time>1970-01-01T00:00:00+00:00</time>
        <ele>1136.0</ele>
      </trkpt>
      <trkpt lat="47.244448" lon="13.185605">
        <time>1970-01-01T00:00:00+00:00</time>
        <ele>1152.0</ele>
      </trkpt>
      <trkpt lat="47.24439" lon="13.185503">
        <time>1970-01-01T00:00:00+00:00</time>
        <ele>1157.0</ele>
      </trkpt>
      <trkpt lat="47.244518" lon="13.184979">
        <time>1970-01-01T00:00:00+00:00</time>
        <ele>1169.0</ele>
      </trkpt>
      <trkpt lat="47.244615" lon="13.184903">
        <time>1970-01-01T00:00:00+00:00</time>
        <ele>1169.0</ele>
      </trkpt>
      <trkpt lat="47.244665" lon="13.184674">
        <time>1970-01-01T00:00:00+00:00</time>
        <ele>1180.0</ele>
      </trkpt>
      <trkpt lat="47.244669" lon="13.184553">
        <time>1970-01-01T00:00:00+00:00</time>
        <ele>1187.0</ele>
      </trkpt>
      <trkpt lat="47.244618" lon="13.184413">
        <time>1970-01-01T00:00:00+00:00</time>
        <ele>1194.0</ele>
      </trkpt>
      <trkpt lat="47.244516" lon="13.184253">
        <time>1970-01-01T00:00:00+00:00</time>
        <ele>1204.0</ele>
      </trkpt>
      <trkpt lat="47.2444" lon="13.183954">
        <time>1970-01-01T00:00:00+00:00</time>
        <ele>1207.0</ele>
      </trkpt>
      <trkpt lat="47.244145" lon="13.184353">
        <time>1970-01-01T00:00:00+00:00</time>
        <ele>1201.0</ele>
      </trkpt>
      <trkpt lat="47.24406" lon="13.18441">
        <time>1970-01-01T00:00:00+00:00</time>
        <ele>1199.0</ele>
      </trkpt>
      <trkpt lat="47.243952" lon="13.1844">
        <time>1970-01-01T00:00:00+00:00</time>
        <ele>1199.0</ele>
      </trkpt>
      <trkpt lat="47.243877" lon="13.184406">
        <time>1970-01-01T00:00:00+00:00</time>
        <ele>1199.0</ele>
      </trkpt>
      <trkpt lat="47.243727" lon="13.184356">
        <time>1970-01-01T00:00:00+00:00</time>
        <ele>1203.0</ele>
      </trkpt>
      <trkpt lat="47.24361" lon="13.184278">
        <time>1970-01-01T00:00:00+00:00</time>
        <ele>1206.0</ele>
      </trkpt>
      <trkpt lat="47.243433" lon="13.183967">
        <time>1970-01-01T00:00:00+00:00</time>
        <ele>1214.0</ele>
      </trkpt>
      <trkpt lat="47.243402" lon="13.18389">
        <time>1970-01-01T00:00:00+00:00</time>
        <ele>1217.0</ele>
      </trkpt>
      <trkpt lat="47.243357" lon="13.183578">
        <time>1970-01-01T00:00:00+00:00</time>
        <ele>1224.0</ele>
      </trkpt>
      <trkpt lat="47.243365" lon="13.182874">
        <time>1970-01-01T00:00:00+00:00</time>
        <ele>1239.0</ele>
      </trkpt>
      <trkpt lat="47.24335" lon="13.182693">
        <time>1970-01-01T00:00:00+00:00</time>
        <ele>1241.0</ele>
      </trkpt>
      <trkpt lat="47.243328" lon="13.182605">
        <time>1970-01-01T00:00:00+00:00</time>
        <ele>1243.0</ele>
      </trkpt>
      <trkpt lat="47.243097" lon="13.182116">
        <time>1970-01-01T00:00:00+00:00</time>
        <ele>1252.0</ele>
      </trkpt>
      <trkpt lat="47.242964" lon="13.181722">
        <time>1970-01-01T00:00:00+00:00</time>
        <ele>1261.0</ele>
      </trkpt>
      <trkpt lat="47.242873" lon="13.181512">
        <time>1970-01-01T00:00:00+00:00</time>
        <ele>1265.0</ele>
      </trkpt>
      <trkpt lat="47.242783" lon="13.18135">
        <time>1970-01-01T00:00:00+00:00</time>
        <ele>1270.0</ele>
      </trkpt>
      <trkpt lat="47.242697" lon="13.181256">
        <time>1970-01-01T00:00:00+00:00</time>
        <ele>1272.0</ele>
      </trkpt>
      <trkpt lat="47.24263" lon="13.18124">
        <time>1970-01-01T00:00:00+00:00</time>
        <ele>1273.0</ele>
      </trkpt>
      <trkpt lat="47.242518" lon="13.181272">
        <time>1970-01-01T00:00:00+00:00</time>
        <ele>1275.0</ele>
      </trkpt>
      <trkpt lat="47.242496" lon="13.18135">
        <time>1970-01-01T00:00:00+00:00</time>
        <ele>1274.0</ele>
      </trkpt>
      <trkpt lat="47.242369" lon="13.181312">
        <time>1970-01-01T00:00:00+00:00</time>
        <ele>1278.0</ele>
      </trkpt>
      <trkpt lat="47.242264" lon="13.181218">
        <time>1970-01-01T00:00:00+00:00</time>
        <ele>1283.0</ele>
      </trkpt>
      <trkpt lat="47.2422" lon="13.181112">
        <time>1970-01-01T00:00:00+00:00</time>
        <ele>1287.0</ele>
      </trkpt>
      <trkpt lat="47.242075" lon="13.180767">
        <time>1970-01-01T00:00:00+00:00</time>
        <ele>1296.0</ele>
      </trkpt>
      <trkpt lat="47.241817" lon="13.179928">
        <time>1970-01-01T00:00:00+00:00</time>
        <ele>1315.0</ele>
      </trkpt>
      <trkpt lat="47.241577" lon="13.180123">
        <time>1970-01-01T00:00:00+00:00</time>
        <ele>1320.0</ele>
      </trkpt>
      <trkpt lat="47.241549" lon="13.180147">
        <time>1970-01-01T00:00:00+00:00</time>
        <ele>1320.0</ele>
      </trkpt>
      <trkpt lat="47.241234" lon="13.180419">
        <time>1970-01-01T00:00:00+00:00</time>
        <ele>1322.0</ele>
      </trkpt>
      <trkpt lat="47.240923" lon="13.180459">
        <time>1970-01-01T00:00:00+00:00</time>
        <ele>1329.0</ele>
      </trkpt>
      <trkpt lat="47.240816" lon="13.180541">
        <time>1970-01-01T00:00:00+00:00</time>
        <ele>1332.0</ele>
      </trkpt>
      <trkpt lat="47.240509" lon="13.18092">
        <time>1970-01-01T00:00:00+00:00</time>
        <ele>1339.0</ele>
      </trkpt>
      <trkpt lat="47.240392" lon="13.1811">
        <time>1970-01-01T00:00:00+00:00</time>
        <ele>1345.0</ele>
      </trkpt>
      <trkpt lat="47.240302" lon="13.181321">
        <time>1970-01-01T00:00:00+00:00</time>
        <ele>1353.0</ele>
      </trkpt>
      <trkpt lat="47.240267" lon="13.181473">
        <time>1970-01-01T00:00:00+00:00</time>
        <ele>1355.0</ele>
      </trkpt>
      <trkpt lat="47.240243" lon="13.181813">
        <time>1970-01-01T00:00:00+00:00</time>
        <ele>1354.0</ele>
      </trkpt>
      <trkpt lat="47.240202" lon="13.181908">
        <time>1970-01-01T00:00:00+00:00</time>
        <ele>1354.0</ele>
      </trkpt>
      <trkpt lat="47.240206" lon="13.182069">
        <time>1970-01-01T00:00:00+00:00</time>
        <ele>1351.0</ele>
      </trkpt>
      <trkpt lat="47.24023" lon="13.182208">
        <time>1970-01-01T00:00:00+00:00</time>
        <ele>1347.0</ele>
      </trkpt>
      <trkpt lat="47.240207" lon="13.182344">
        <time>1970-01-01T00:00:00+00:00</time>
        <ele>1344.0</ele>
      </trkpt>
      <trkpt lat="47.240175" lon="13.182422">
        <time>1970-01-01T00:00:00+00:00</time>
        <ele>1342.0</ele>
      </trkpt>
      <trkpt lat="47.24014" lon="13.182461">
        <time>1970-01-01T00:00:00+00:00</time>
        <ele>1341.0</ele>
      </trkpt>
      <trkpt lat="47.240038" lon="13.182507">
        <time>1970-01-01T00:00:00+00:00</time>
        <ele>1341.0</ele>
      </trkpt>
      <trkpt lat="47.239921" lon="13.182504">
        <time>1970-01-01T00:00:00+00:00</time>
        <ele>1344.0</ele>
      </trkpt>
      <trkpt lat="47.239228" lon="13.182253">
        <time>1970-01-01T00:00:00+00:00</time>
        <ele>1351.0</ele>
      </trkpt>
      <trkpt lat="47.239082" lon="13.182169">
        <time>1970-01-01T00:00:00+00:00</time>
        <ele>1351.0</ele>
      </trkpt>
      <trkpt lat="47.238554" lon="13.181796">
        <time>1970-01-01T00:00:00+00:00</time>
        <ele>1358.0</ele>
      </trkpt>
      <trkpt lat="47.238432" lon="13.181743">
        <time>1970-01-01T00:00:00+00:00</time>
        <ele>1360.0</ele>
      </trkpt>
      <trkpt lat="47.238187" lon="13.1817">
        <time>1970-01-01T00:00:00+00:00</time>
        <ele>1361.0</ele>
      </trkpt>
      <trkpt lat="47.237812" lon="13.1817">
        <time>1970-01-01T00:00:00+00:00</time>
        <ele>1365.0</ele>
      </trkpt>
      <trkpt lat="47.237387" lon="13.181771">
        <time>1970-01-01T00:00:00+00:00</time>
        <ele>1371.0</ele>
      </trkpt>
      <trkpt lat="47.237291" lon="13.181813">
        <time>1970-01-01T00:00:00+00:00</time>
        <ele>1371.0</ele>
      </trkpt>
      <trkpt lat="47.237299" lon="13.181665">
        <time>1970-01-01T00:00:00+00:00</time>
        <ele>1374.0</ele>
      </trkpt>
      <trkpt lat="47.237376" lon="13.181564">
        <time>1970-01-01T00:00:00+00:00</time>
        <ele>1377.0</ele>
      </trkpt>
      <trkpt lat="47.237545" lon="13.181458">
        <time>1970-01-01T00:00:00+00:00</time>
        <ele>1379.0</ele>
      </trkpt>
      <trkpt lat="47.237736" lon="13.181415">
        <time>1970-01-01T00:00:00+00:00</time>
        <ele>1377.0</ele>
      </trkpt>
      <trkpt lat="47.237937" lon="13.181281">
        <time>1970-01-01T00:00:00+00:00</time>
        <ele>1379.0</ele>
      </trkpt>
      <trkpt lat="47.238136" lon="13.181115">
        <time>1970-01-01T00:00:00+00:00</time>
        <ele>1386.0</ele>
      </trkpt>
      <trkpt lat="47.238459" lon="13.18105">
        <time>1970-01-01T00:00:00+00:00</time>
        <ele>1390.0</ele>
      </trkpt>
      <trkpt lat="47.238693" lon="13.180781">
        <time>1970-01-01T00:00:00+00:00</time>
        <ele>1398.0</ele>
      </trkpt>
      <trkpt lat="47.238771" lon="13.180634">
        <time>1970-01-01T00:00:00+00:00</time>
        <ele>1401.0</ele>
      </trkpt>
      <trkpt lat="47.238778" lon="13.180463">
        <time>1970-01-01T00:00:00+00:00</time>
        <ele>1404.0</ele>
      </trkpt>
      <trkpt lat="47.238723" lon="13.180413">
        <time>1970-01-01T00:00:00+00:00</time>
        <ele>1406.0</ele>
      </trkpt>
      <trkpt lat="47.23853" lon="13.180444">
        <time>1970-01-01T00:00:00+00:00</time>
        <ele>1407.0</ele>
      </trkpt>
      <trkpt lat="47.238302" lon="13.180426">
        <time>1970-01-01T00:00:00+00:00</time>
        <ele>1408.0</ele>
      </trkpt>
      <trkpt lat="47.238454" lon="13.180271">
        <time>1970-01-01T00:00:00+00:00</time>
        <ele>1412.0</ele>
      </trkpt>
      <trkpt lat="47.238553" lon="13.180115">
        <time>1970-01-01T00:00:00+00:00</time>
        <ele>1416.0</ele>
      </trkpt>
      <trkpt lat="47.238564" lon="13.179678">
        <time>1970-01-01T00:00:00+00:00</time>
        <ele>1431.0</ele>
      </trkpt>
      <trkpt lat="47.238597" lon="13.179491">
        <time>1970-01-01T00:00:00+00:00</time>
        <ele>1432.0</ele>
      </trkpt>
      <trkpt lat="47.238551" lon="13.179056">
        <time>1970-01-01T00:00:00+00:00</time>
        <ele>1441.0</ele>
      </trkpt>
      <trkpt lat="47.238451" lon="13.178751">
        <time>1970-01-01T00:00:00+00:00</time>
        <ele>1448.0</ele>
      </trkpt>
      <trkpt lat="47.238363" lon="13.178718">
        <time>1970-01-01T00:00:00+00:00</time>
        <ele>1451.0</ele>
      </trkpt>
      <trkpt lat="47.238263" lon="13.178806">
        <time>1970-01-01T00:00:00+00:00</time>
        <ele>1453.0</ele>
      </trkpt>
      <trkpt lat="47.238073" lon="13.179032">
        <time>1970-01-01T00:00:00+00:00</time>
        <ele>1453.0</ele>
      </trkpt>
      <trkpt lat="47.237981" lon="13.179023">
        <time>1970-01-01T00:00:00+00:00</time>
        <ele>1454.0</ele>
      </trkpt>
      <trkpt lat="47.237995" lon="13.178736">
        <time>1970-01-01T00:00:00+00:00</time>
        <ele>1457.0</ele>
      </trkpt>
      <trkpt lat="47.237981" lon="13.178412">
        <time>1970-01-01T00:00:00+00:00</time>
        <ele>1459.0</ele>
      </trkpt>
      <trkpt lat="47.238008" lon="13.178018">
        <time>1970-01-01T00:00:00+00:00</time>
        <ele>1463.0</ele>
      </trkpt>
      <trkpt lat="47.237984" lon="13.17757">
        <time>1970-01-01T00:00:00+00:00</time>
        <ele>1469.0</ele>
      </trkpt>
      <trkpt lat="47.237937" lon="13.177492">
        <time>1970-01-01T00:00:00+00:00</time>
        <ele>1471.0</ele>
      </trkpt>
      <trkpt lat="47.237886" lon="13.177484">
        <time>1970-01-01T00:00:00+00:00</time>
        <ele>1472.0</ele>
      </trkpt>
      <trkpt lat="47.237824" lon="13.177591">
        <time>1970-01-01T00:00:00+00:00</time>
        <ele>1473.0</ele>
      </trkpt>
      <trkpt lat="47.237697" lon="13.177969">
        <time>1970-01-01T00:00:00+00:00</time>
        <ele>1472.0</ele>
      </trkpt>
      <trkpt lat="47.237626" lon="13.178103">
        <time>1970-01-01T00:00:00+00:00</time>
        <ele>1473.0</ele>
      </trkpt>
      <trkpt lat="47.237559" lon="13.17815">
        <time>1970-01-01T00:00:00+00:00</time>
        <ele>1474.0</ele>
      </trkpt>
      <trkpt lat="47.237469" lon="13.178077">
        <time>1970-01-01T00:00:00+00:00</time>
        <ele>1478.0</ele>
      </trkpt>
      <trkpt lat="47.237369" lon="13.177867">
        <time>1970-01-01T00:00:00+00:00</time>
        <ele>1482.0</ele>
      </trkpt>
      <trkpt lat="47.237238" lon="13.177714">
        <time>1970-01-01T00:00:00+00:00</time>
        <ele>1486.0</ele>
      </trkpt>
      <trkpt lat="47.237142" lon="13.177667">
        <time>1970-01-01T00:00:00+00:00</time>
        <ele>1490.0</ele>
      </trkpt>
      <trkpt lat="47.237088" lon="13.177672">
        <time>1970-01-01T00:00:00+00:00</time>
        <ele>1492.0</ele>
      </trkpt>
      <trkpt lat="47.237048" lon="13.177744">
        <time>1970-01-01T00:00:00+00:00</time>
        <ele>1492.0</ele>
      </trkpt>
      <trkpt lat="47.236937" lon="13.178095">
        <time>1970-01-01T00:00:00+00:00</time>
        <ele>1490.0</ele>
      </trkpt>
      <trkpt lat="47.236854" lon="13.178222">
        <time>1970-01-01T00:00:00+00:00</time>
        <ele>1489.0</ele>
      </trkpt>
      <trkpt lat="47.23673" lon="13.178157">
        <time>1970-01-01T00:00:00+00:00</time>
        <ele>1493.0</ele>
      </trkpt>
      <trkpt lat="47.236708" lon="13.178103">
        <time>1970-01-01T00:00:00+00:00</time>
        <ele>1494.0</ele>
      </trkpt>
      <trkpt lat="47.236733" lon="13.177883">
        <time>1970-01-01T00:00:00+00:00</time>
        <ele>1499.0</ele>
      </trkpt>
      <trkpt lat="47.236713" lon="13.177771">
        <time>1970-01-01T00:00:00+00:00</time>
        <ele>1501.0</ele>
      </trkpt>
      <trkpt lat="47.236663" lon="13.177664">
        <time>1970-01-01T00:00:00+00:00</time>
        <ele>1504.0</ele>
      </trkpt>
      <trkpt lat="47.236456" lon="13.177546">
        <time>1970-01-01T00:00:00+00:00</time>
        <ele>1508.0</ele>
      </trkpt>
      <trkpt lat="47.236439" lon="13.17744">
        <time>1970-01-01T00:00:00+00:00</time>
        <ele>1511.0</ele>
      </trkpt>
      <trkpt lat="47.236439" lon="13.17744">
        <time>1970-01-01T00:00:00+00:00</time>
        <ele>1511.0</ele>
      </trkpt>
      <trkpt lat="47.236456" lon="13.177546">
        <time>1970-01-01T00:00:00+00:00</time>
        <ele>1508.0</ele>
      </trkpt>
      <trkpt lat="47.236663" lon="13.177664">
        <time>1970-01-01T00:00:00+00:00</time>
        <ele>1504.0</ele>
      </trkpt>
      <trkpt lat="47.236713" lon="13.177771">
        <time>1970-01-01T00:00:00+00:00</time>
        <ele>1501.0</ele>
      </trkpt>
      <trkpt lat="47.236733" lon="13.177883">
        <time>1970-01-01T00:00:00+00:00</time>
        <ele>1499.0</ele>
      </trkpt>
      <trkpt lat="47.236708" lon="13.178103">
        <time>1970-01-01T00:00:00+00:00</time>
        <ele>1494.0</ele>
      </trkpt>
      <trkpt lat="47.23673" lon="13.178157">
        <time>1970-01-01T00:00:00+00:00</time>
        <ele>1493.0</ele>
      </trkpt>
      <trkpt lat="47.236854" lon="13.178222">
        <time>1970-01-01T00:00:00+00:00</time>
        <ele>1489.0</ele>
      </trkpt>
      <trkpt lat="47.236937" lon="13.178095">
        <time>1970-01-01T00:00:00+00:00</time>
        <ele>1490.0</ele>
      </trkpt>
      <trkpt lat="47.237048" lon="13.177744">
        <time>1970-01-01T00:00:00+00:00</time>
        <ele>1492.0</ele>
      </trkpt>
      <trkpt lat="47.237088" lon="13.177672">
        <time>1970-01-01T00:00:00+00:00</time>
        <ele>1492.0</ele>
      </trkpt>
      <trkpt lat="47.237142" lon="13.177667">
        <time>1970-01-01T00:00:00+00:00</time>
        <ele>1490.0</ele>
      </trkpt>
      <trkpt lat="47.237238" lon="13.177714">
        <time>1970-01-01T00:00:00+00:00</time>
        <ele>1486.0</ele>
      </trkpt>
      <trkpt lat="47.237369" lon="13.177867">
        <time>1970-01-01T00:00:00+00:00</time>
        <ele>1482.0</ele>
      </trkpt>
      <trkpt lat="47.237469" lon="13.178077">
        <time>1970-01-01T00:00:00+00:00</time>
        <ele>1478.0</ele>
      </trkpt>
      <trkpt lat="47.237559" lon="13.17815">
        <time>1970-01-01T00:00:00+00:00</time>
        <ele>1474.0</ele>
      </trkpt>
      <trkpt lat="47.237626" lon="13.178103">
        <time>1970-01-01T00:00:00+00:00</time>
        <ele>1473.0</ele>
      </trkpt>
      <trkpt lat="47.237697" lon="13.177969">
        <time>1970-01-01T00:00:00+00:00</time>
        <ele>1472.0</ele>
      </trkpt>
      <trkpt lat="47.237824" lon="13.177591">
        <time>1970-01-01T00:00:00+00:00</time>
        <ele>1473.0</ele>
      </trkpt>
      <trkpt lat="47.237886" lon="13.177484">
        <time>1970-01-01T00:00:00+00:00</time>
        <ele>1472.0</ele>
      </trkpt>
      <trkpt lat="47.237937" lon="13.177492">
        <time>1970-01-01T00:00:00+00:00</time>
        <ele>1471.0</ele>
      </trkpt>
      <trkpt lat="47.237984" lon="13.17757">
        <time>1970-01-01T00:00:00+00:00</time>
        <ele>1469.0</ele>
      </trkpt>
      <trkpt lat="47.238008" lon="13.178018">
        <time>1970-01-01T00:00:00+00:00</time>
        <ele>1463.0</ele>
      </trkpt>
      <trkpt lat="47.237981" lon="13.178412">
        <time>1970-01-01T00:00:00+00:00</time>
        <ele>1459.0</ele>
      </trkpt>
      <trkpt lat="47.237995" lon="13.178736">
        <time>1970-01-01T00:00:00+00:00</time>
        <ele>1457.0</ele>
      </trkpt>
      <trkpt lat="47.237981" lon="13.179023">
        <time>1970-01-01T00:00:00+00:00</time>
        <ele>1454.0</ele>
      </trkpt>
      <trkpt lat="47.238073" lon="13.179032">
        <time>1970-01-01T00:00:00+00:00</time>
        <ele>1453.0</ele>
      </trkpt>
      <trkpt lat="47.238263" lon="13.178806">
        <time>1970-01-01T00:00:00+00:00</time>
        <ele>1453.0</ele>
      </trkpt>
      <trkpt lat="47.238363" lon="13.178718">
        <time>1970-01-01T00:00:00+00:00</time>
        <ele>1451.0</ele>
      </trkpt>
      <trkpt lat="47.238451" lon="13.178751">
        <time>1970-01-01T00:00:00+00:00</time>
        <ele>1448.0</ele>
      </trkpt>
      <trkpt lat="47.238551" lon="13.179056">
        <time>1970-01-01T00:00:00+00:00</time>
        <ele>1441.0</ele>
      </trkpt>
      <trkpt lat="47.238597" lon="13.179491">
        <time>1970-01-01T00:00:00+00:00</time>
        <ele>1432.0</ele>
      </trkpt>
      <trkpt lat="47.238564" lon="13.179678">
        <time>1970-01-01T00:00:00+00:00</time>
        <ele>1431.0</ele>
      </trkpt>
      <trkpt lat="47.238553" lon="13.180115">
        <time>1970-01-01T00:00:00+00:00</time>
        <ele>1416.0</ele>
      </trkpt>
      <trkpt lat="47.238454" lon="13.180271">
        <time>1970-01-01T00:00:00+00:00</time>
        <ele>1412.0</ele>
      </trkpt>
      <trkpt lat="47.238302" lon="13.180426">
        <time>1970-01-01T00:00:00+00:00</time>
        <ele>1408.0</ele>
      </trkpt>
      <trkpt lat="47.23853" lon="13.180444">
        <time>1970-01-01T00:00:00+00:00</time>
        <ele>1407.0</ele>
      </trkpt>
      <trkpt lat="47.238723" lon="13.180413">
        <time>1970-01-01T00:00:00+00:00</time>
        <ele>1406.0</ele>
      </trkpt>
      <trkpt lat="47.238778" lon="13.180463">
        <time>1970-01-01T00:00:00+00:00</time>
        <ele>1404.0</ele>
      </trkpt>
      <trkpt lat="47.238771" lon="13.180634">
        <time>1970-01-01T00:00:00+00:00</time>
        <ele>1401.0</ele>
      </trkpt>
      <trkpt lat="47.238693" lon="13.180781">
        <time>1970-01-01T00:00:00+00:00</time>
        <ele>1398.0</ele>
      </trkpt>
      <trkpt lat="47.238459" lon="13.18105">
        <time>1970-01-01T00:00:00+00:00</time>
        <ele>1390.0</ele>
      </trkpt>
      <trkpt lat="47.238136" lon="13.181115">
        <time>1970-01-01T00:00:00+00:00</time>
        <ele>1386.0</ele>
      </trkpt>
      <trkpt lat="47.237937" lon="13.181281">
        <time>1970-01-01T00:00:00+00:00</time>
        <ele>1379.0</ele>
      </trkpt>
      <trkpt lat="47.237736" lon="13.181415">
        <time>1970-01-01T00:00:00+00:00</time>
        <ele>1377.0</ele>
      </trkpt>
      <trkpt lat="47.237545" lon="13.181458">
        <time>1970-01-01T00:00:00+00:00</time>
        <ele>1379.0</ele>
      </trkpt>
      <trkpt lat="47.237376" lon="13.181564">
        <time>1970-01-01T00:00:00+00:00</time>
        <ele>1377.0</ele>
      </trkpt>
      <trkpt lat="47.237299" lon="13.181665">
        <time>1970-01-01T00:00:00+00:00</time>
        <ele>1374.0</ele>
      </trkpt>
      <trkpt lat="47.237291" lon="13.181813">
        <time>1970-01-01T00:00:00+00:00</time>
        <ele>1371.0</ele>
      </trkpt>
      <trkpt lat="47.237387" lon="13.181771">
        <time>1970-01-01T00:00:00+00:00</time>
        <ele>1371.0</ele>
      </trkpt>
      <trkpt lat="47.237812" lon="13.1817">
        <time>1970-01-01T00:00:00+00:00</time>
        <ele>1365.0</ele>
      </trkpt>
      <trkpt lat="47.238187" lon="13.1817">
        <time>1970-01-01T00:00:00+00:00</time>
        <ele>1361.0</ele>
      </trkpt>
      <trkpt lat="47.238432" lon="13.181743">
        <time>1970-01-01T00:00:00+00:00</time>
        <ele>1360.0</ele>
      </trkpt>
      <trkpt lat="47.238554" lon="13.181796">
        <time>1970-01-01T00:00:00+00:00</time>
        <ele>1358.0</ele>
      </trkpt>
      <trkpt lat="47.239082" lon="13.182169">
        <time>1970-01-01T00:00:00+00:00</time>
        <ele>1351.0</ele>
      </trkpt>
      <trkpt lat="47.239228" lon="13.182253">
        <time>1970-01-01T00:00:00+00:00</time>
        <ele>1351.0</ele>
      </trkpt>
      <trkpt lat="47.239921" lon="13.182504">
        <time>1970-01-01T00:00:00+00:00</time>
        <ele>1344.0</ele>
      </trkpt>
      <trkpt lat="47.240038" lon="13.182507">
        <time>1970-01-01T00:00:00+00:00</time>
        <ele>1341.0</ele>
      </trkpt>
      <trkpt lat="47.24014" lon="13.182461">
        <time>1970-01-01T00:00:00+00:00</time>
        <ele>1341.0</ele>
      </trkpt>
      <trkpt lat="47.240175" lon="13.182422">
        <time>1970-01-01T00:00:00+00:00</time>
        <ele>1342.0</ele>
      </trkpt>
      <trkpt lat="47.240207" lon="13.182344">
        <time>1970-01-01T00:00:00+00:00</time>
        <ele>1344.0</ele>
      </trkpt>
      <trkpt lat="47.24023" lon="13.182208">
        <time>1970-01-01T00:00:00+00:00</time>
        <ele>1347.0</ele>
      </trkpt>
      <trkpt lat="47.240206" lon="13.182069">
        <time>1970-01-01T00:00:00+00:00</time>
        <ele>1351.0</ele>
      </trkpt>
      <trkpt lat="47.240202" lon="13.181908">
        <time>1970-01-01T00:00:00+00:00</time>
        <ele>1354.0</ele>
      </trkpt>
      <trkpt lat="47.240243" lon="13.181813">
        <time>1970-01-01T00:00:00+00:00</time>
        <ele>1354.0</ele>
      </trkpt>
      <trkpt lat="47.240267" lon="13.181473">
        <time>1970-01-01T00:00:00+00:00</time>
        <ele>1355.0</ele>
      </trkpt>
      <trkpt lat="47.240302" lon="13.181321">
        <time>1970-01-01T00:00:00+00:00</time>
        <ele>1353.0</ele>
      </trkpt>
      <trkpt lat="47.240392" lon="13.1811">
        <time>1970-01-01T00:00:00+00:00</time>
        <ele>1345.0</ele>
      </trkpt>
      <trkpt lat="47.240509" lon="13.18092">
        <time>1970-01-01T00:00:00+00:00</time>
        <ele>1339.0</ele>
      </trkpt>
      <trkpt lat="47.240816" lon="13.180541">
        <time>1970-01-01T00:00:00+00:00</time>
        <ele>1332.0</ele>
      </trkpt>
      <trkpt lat="47.240923" lon="13.180459">
        <time>1970-01-01T00:00:00+00:00</time>
        <ele>1329.0</ele>
      </trkpt>
      <trkpt lat="47.241234" lon="13.180419">
        <time>1970-01-01T00:00:00+00:00</time>
        <ele>1322.0</ele>
      </trkpt>
      <trkpt lat="47.241549" lon="13.180147">
        <time>1970-01-01T00:00:00+00:00</time>
        <ele>1320.0</ele>
      </trkpt>
      <trkpt lat="47.241577" lon="13.180123">
        <time>1970-01-01T00:00:00+00:00</time>
        <ele>1320.0</ele>
      </trkpt>
      <trkpt lat="47.241817" lon="13.179928">
        <time>1970-01-01T00:00:00+00:00</time>
        <ele>1315.0</ele>
      </trkpt>
      <trkpt lat="47.242075" lon="13.180767">
        <time>1970-01-01T00:00:00+00:00</time>
        <ele>1296.0</ele>
      </trkpt>
      <trkpt lat="47.2422" lon="13.181112">
        <time>1970-01-01T00:00:00+00:00</time>
        <ele>1287.0</ele>
      </trkpt>
      <trkpt lat="47.242264" lon="13.181218">
        <time>1970-01-01T00:00:00+00:00</time>
        <ele>1283.0</ele>
      </trkpt>
      <trkpt lat="47.242369" lon="13.181312">
        <time>1970-01-01T00:00:00+00:00</time>
        <ele>1278.0</ele>
      </trkpt>
      <trkpt lat="47.242496" lon="13.18135">
        <time>1970-01-01T00:00:00+00:00</time>
        <ele>1274.0</ele>
      </trkpt>
      <trkpt lat="47.242518" lon="13.181272">
        <time>1970-01-01T00:00:00+00:00</time>
        <ele>1275.0</ele>
      </trkpt>
      <trkpt lat="47.24263" lon="13.18124">
        <time>1970-01-01T00:00:00+00:00</time>
        <ele>1273.0</ele>
      </trkpt>
      <trkpt lat="47.242697" lon="13.181256">
        <time>1970-01-01T00:00:00+00:00</time>
        <ele>1272.0</ele>
      </trkpt>
      <trkpt lat="47.242783" lon="13.18135">
        <time>1970-01-01T00:00:00+00:00</time>
        <ele>1270.0</ele>
      </trkpt>
      <trkpt lat="47.242873" lon="13.181512">
        <time>1970-01-01T00:00:00+00:00</time>
        <ele>1265.0</ele>
      </trkpt>
      <trkpt lat="47.242964" lon="13.181722">
        <time>1970-01-01T00:00:00+00:00</time>
        <ele>1261.0</ele>
      </trkpt>
      <trkpt lat="47.243097" lon="13.182116">
        <time>1970-01-01T00:00:00+00:00</time>
        <ele>1252.0</ele>
      </trkpt>
      <trkpt lat="47.243328" lon="13.182605">
        <time>1970-01-01T00:00:00+00:00</time>
        <ele>1243.0</ele>
      </trkpt>
      <trkpt lat="47.24335" lon="13.182693">
        <time>1970-01-01T00:00:00+00:00</time>
        <ele>1241.0</ele>
      </trkpt>
      <trkpt lat="47.243365" lon="13.182874">
        <time>1970-01-01T00:00:00+00:00</time>
        <ele>1239.0</ele>
      </trkpt>
      <trkpt lat="47.243357" lon="13.183578">
        <time>1970-01-01T00:00:00+00:00</time>
        <ele>1224.0</ele>
      </trkpt>
      <trkpt lat="47.243402" lon="13.18389">
        <time>1970-01-01T00:00:00+00:00</time>
        <ele>1217.0</ele>
      </trkpt>
      <trkpt lat="47.243433" lon="13.183967">
        <time>1970-01-01T00:00:00+00:00</time>
        <ele>1214.0</ele>
      </trkpt>
      <trkpt lat="47.24361" lon="13.184278">
        <time>1970-01-01T00:00:00+00:00</time>
        <ele>1206.0</ele>
      </trkpt>
      <trkpt lat="47.243727" lon="13.184356">
        <time>1970-01-01T00:00:00+00:00</time>
        <ele>1203.0</ele>
      </trkpt>
      <trkpt lat="47.243877" lon="13.184406">
        <time>1970-01-01T00:00:00+00:00</time>
        <ele>1199.0</ele>
      </trkpt>
      <trkpt lat="47.243952" lon="13.1844">
        <time>1970-01-01T00:00:00+00:00</time>
        <ele>1199.0</ele>
      </trkpt>
      <trkpt lat="47.24406" lon="13.18441">
        <time>1970-01-01T00:00:00+00:00</time>
        <ele>1199.0</ele>
      </trkpt>
      <trkpt lat="47.244145" lon="13.184353">
        <time>1970-01-01T00:00:00+00:00</time>
        <ele>1201.0</ele>
      </trkpt>
      <trkpt lat="47.2444" lon="13.183954">
        <time>1970-01-01T00:00:00+00:00</time>
        <ele>1207.0</ele>
      </trkpt>
      <trkpt lat="47.244516" lon="13.184253">
        <time>1970-01-01T00:00:00+00:00</time>
        <ele>1204.0</ele>
      </trkpt>
      <trkpt lat="47.244618" lon="13.184413">
        <time>1970-01-01T00:00:00+00:00</time>
        <ele>1194.0</ele>
      </trkpt>
      <trkpt lat="47.244669" lon="13.184553">
        <time>1970-01-01T00:00:00+00:00</time>
        <ele>1187.0</ele>
      </trkpt>
      <trkpt lat="47.244665" lon="13.184674">
        <time>1970-01-01T00:00:00+00:00</time>
        <ele>1180.0</ele>
      </trkpt>
      <trkpt lat="47.244615" lon="13.184903">
        <time>1970-01-01T00:00:00+00:00</time>
        <ele>1169.0</ele>
      </trkpt>
      <trkpt lat="47.244518" lon="13.184979">
        <time>1970-01-01T00:00:00+00:00</time>
        <ele>1169.0</ele>
      </trkpt>
      <trkpt lat="47.24439" lon="13.185503">
        <time>1970-01-01T00:00:00+00:00</time>
        <ele>1157.0</ele>
      </trkpt>
      <trkpt lat="47.244448" lon="13.185605">
        <time>1970-01-01T00:00:00+00:00</time>
        <ele>1152.0</ele>
      </trkpt>
      <trkpt lat="47.24455" lon="13.186087">
        <time>1970-01-01T00:00:00+00:00</time>
        <ele>1136.0</ele>
      </trkpt>
      <trkpt lat="47.2445" lon="13.186293">
        <time>1970-01-01T00:00:00+00:00</time>
        <ele>1131.0</ele>
      </trkpt>
      <trkpt lat="47.244354" lon="13.186648">
        <time>1970-01-01T00:00:00+00:00</time>
        <ele>1128.0</ele>
      </trkpt>
      <trkpt lat="47.244311" lon="13.18687">
        <time>1970-01-01T00:00:00+00:00</time>
        <ele>1123.0</ele>
      </trkpt>
      <trkpt lat="47.244322" lon="13.186972">
        <time>1970-01-01T00:00:00+00:00</time>
        <ele>1120.0</ele>
      </trkpt>
      <trkpt lat="47.244373" lon="13.187092">
        <time>1970-01-01T00:00:00+00:00</time>
        <ele>1116.0</ele>
      </trkpt>
      <trkpt lat="47.244466" lon="13.187104">
        <time>1970-01-01T00:00:00+00:00</time>
        <ele>1114.0</ele>
      </trkpt>
      <trkpt lat="47.244692" lon="13.186934">
        <time>1970-01-01T00:00:00+00:00</time>
        <ele>1112.0</ele>
      </trkpt>
      <trkpt lat="47.245045" lon="13.186573">
        <time>1970-01-01T00:00:00+00:00</time>
        <ele>1111.0</ele>
      </trkpt>
      <trkpt lat="47.245214" lon="13.186308">
        <time>1970-01-01T00:00:00+00:00</time>
        <ele>1107.0</ele>
      </trkpt>
      <trkpt lat="47.245276" lon="13.186258">
        <time>1970-01-01T00:00:00+00:00</time>
        <ele>1104.0</ele>
      </trkpt>
      <trkpt lat="47.245341" lon="13.186247">
        <time>1970-01-01T00:00:00+00:00</time>
        <ele>1100.0</ele>
      </trkpt>
      <trkpt lat="47.245461" lon="13.186322">
        <time>1970-01-01T00:00:00+00:00</time>
        <ele>1093.0</ele>
      </trkpt>
      <trkpt lat="47.245549" lon="13.186404">
        <time>1970-01-01T00:00:00+00:00</time>
        <ele>1087.0</ele>
      </trkpt>
      <trkpt lat="47.245569" lon="13.186449">
        <time>1970-01-01T00:00:00+00:00</time>
        <ele>1085.0</ele>
      </trkpt>
      <trkpt lat="47.245549" lon="13.18678">
        <time>1970-01-01T00:00:00+00:00</time>
        <ele>1081.0</ele>
      </trkpt>
      <trkpt lat="47.245555" lon="13.186916">
        <time>1970-01-01T00:00:00+00:00</time>
        <ele>1077.0</ele>
      </trkpt>
      <trkpt lat="47.245515" lon="13.187246">
        <time>1970-01-01T00:00:00+00:00</time>
        <ele>1072.0</ele>
      </trkpt>
      <trkpt lat="47.245453" lon="13.188051">
        <time>1970-01-01T00:00:00+00:00</time>
        <ele>1056.0</ele>
      </trkpt>
      <trkpt lat="47.245449" lon="13.188215">
        <time>1970-01-01T00:00:00+00:00</time>
        <ele>1053.0</ele>
      </trkpt>
      <trkpt lat="47.245495" lon="13.188243">
        <time>1970-01-01T00:00:00+00:00</time>
        <ele>1051.0</ele>
      </trkpt>
      <trkpt lat="47.245706" lon="13.188118">
        <time>1970-01-01T00:00:00+00:00</time>
        <ele>1047.0</ele>
      </trkpt>
      <trkpt lat="47.245926" lon="13.188069">
        <time>1970-01-01T00:00:00+00:00</time>
        <ele>1039.0</ele>
      </trkpt>
      <trkpt lat="47.246182" lon="13.187894">
        <time>1970-01-01T00:00:00+00:00</time>
        <ele>1031.0</ele>
      </trkpt>
      <trkpt lat="47.246311" lon="13.187835">
        <time>1970-01-01T00:00:00+00:00</time>
        <ele>1027.0</ele>
      </trkpt>
      <trkpt lat="47.246555" lon="13.187786">
        <time>1970-01-01T00:00:00+00:00</time>
        <ele>1020.0</ele>
      </trkpt>
      <trkpt lat="47.246591" lon="13.187815">
        <time>1970-01-01T00:00:00+00:00</time>
        <ele>1019.0</ele>
      </trkpt>
      <trkpt lat="47.246605" lon="13.187862">
        <time>1970-01-01T00:00:00+00:00</time>
        <ele>1017.0</ele>
      </trkpt>
      <trkpt lat="47.246531" lon="13.188091">
        <time>1970-01-01T00:00:00+00:00</time>
        <ele>1015.0</ele>
      </trkpt>
      <trkpt lat="47.246489" lon="13.18815">
        <time>1970-01-01T00:00:00+00:00</time>
        <ele>1015.0</ele>
      </trkpt>
      <trkpt lat="47.246486" lon="13.188219">
        <time>1970-01-01T00:00:00+00:00</time>
        <ele>1014.0</ele>
      </trkpt>
      <trkpt lat="47.246504" lon="13.188297">
        <time>1970-01-01T00:00:00+00:00</time>
        <ele>1011.0</ele>
      </trkpt>
      <trkpt lat="47.246735" lon="13.188721">
        <time>1970-01-01T00:00:00+00:00</time>
        <ele>997.0</ele>
      </trkpt>
      <trkpt lat="47.24683" lon="13.188827">
        <time>1970-01-01T00:00:00+00:00</time>
        <ele>993.0</ele>
      </trkpt>
      <trkpt lat="47.246989" lon="13.188942">
        <time>1970-01-01T00:00:00+00:00</time>
        <ele>986.0</ele>
      </trkpt>
      <trkpt lat="47.247091" lon="13.189056">
        <time>1970-01-01T00:00:00+00:00</time>
        <ele>979.0</ele>
      </trkpt>
      <trkpt lat="47.247176" lon="13.18924">
        <time>1970-01-01T00:00:00+00:00</time>
        <ele>973.0</ele>
      </trkpt>
      <trkpt lat="47.247238" lon="13.189432">
        <time>1970-01-01T00:00:00+00:00</time>
        <ele>968.0</ele>
      </trkpt>
      <trkpt lat="47.247275" lon="13.189636">
        <time>1970-01-01T00:00:00+00:00</time>
        <ele>965.0</ele>
      </trkpt>
      <trkpt lat="47.247278" lon="13.189745">
        <time>1970-01-01T00:00:00+00:00</time>
        <ele>964.0</ele>
      </trkpt>
      <trkpt lat="47.247226" lon="13.190156">
        <time>1970-01-01T00:00:00+00:00</time>
        <ele>962.0</ele>
      </trkpt>
      <trkpt lat="47.247228" lon="13.190606">
        <time>1970-01-01T00:00:00+00:00</time>
        <ele>960.0</ele>
      </trkpt>
      <trkpt lat="47.247248" lon="13.190884">
        <time>1970-01-01T00:00:00+00:00</time>
        <ele>956.0</ele>
      </trkpt>
      <trkpt lat="47.247166" lon="13.191376">
        <time>1970-01-01T00:00:00+00:00</time>
        <ele>955.0</ele>
      </trkpt>
      <trkpt lat="47.247176" lon="13.191515">
        <time>1970-01-01T00:00:00+00:00</time>
        <ele>952.0</ele>
      </trkpt>
      <trkpt lat="47.247204" lon="13.191545">
        <time>1970-01-01T00:00:00+00:00</time>
        <ele>950.0</ele>
      </trkpt>
      <trkpt lat="47.247244" lon="13.191376">
        <time>1970-01-01T00:00:00+00:00</time>
        <ele>951.0</ele>
      </trkpt>
      <trkpt lat="47.247283" lon="13.191326">
        <time>1970-01-01T00:00:00+00:00</time>
        <ele>950.0</ele>
      </trkpt>
      <trkpt lat="47.247344" lon="13.191268">
        <time>1970-01-01T00:00:00+00:00</time>
        <ele>948.0</ele>
      </trkpt>
      <trkpt lat="47.247567" lon="13.191199">
        <time>1970-01-01T00:00:00+00:00</time>
        <ele>943.0</ele>
      </trkpt>
      <trkpt lat="47.247673" lon="13.191189">
        <time>1970-01-01T00:00:00+00:00</time>
        <ele>941.0</ele>
      </trkpt>
      <trkpt lat="47.247732" lon="13.191239">
        <time>1970-01-01T00:00:00+00:00</time>
        <ele>939.0</ele>
      </trkpt>
      <trkpt lat="47.247741" lon="13.191282">
        <time>1970-01-01T00:00:00+00:00</time>
        <ele>939.0</ele>
      </trkpt>
      <trkpt lat="47.247722" lon="13.191618">
        <time>1970-01-01T00:00:00+00:00</time>
        <ele>933.0</ele>
      </trkpt>
      <trkpt lat="47.247646" lon="13.191853">
        <time>1970-01-01T00:00:00+00:00</time>
        <ele>931.0</ele>
      </trkpt>
      <trkpt lat="47.247604" lon="13.191999">
        <time>1970-01-01T00:00:00+00:00</time>
        <ele>930.0</ele>
      </trkpt>
      <trkpt lat="47.247544" lon="13.192389">
        <time>1970-01-01T00:00:00+00:00</time>
        <ele>926.0</ele>
      </trkpt>
      <trkpt lat="47.247526" lon="13.192655">
        <time>1970-01-01T00:00:00+00:00</time>
        <ele>922.0</ele>
      </trkpt>
      <trkpt lat="47.247507" lon="13.193473">
        <time>1970-01-01T00:00:00+00:00</time>
        <ele>912.0</ele>
      </trkpt>
      <trkpt lat="47.247479" lon="13.194269">
        <time>1970-01-01T00:00:00+00:00</time>
        <ele>907.0</ele>
      </trkpt>
      <trkpt lat="47.247517" lon="13.19459">
        <time>1970-01-01T00:00:00+00:00</time>
        <ele>905.0</ele>
      </trkpt>
      <trkpt lat="47.247637" lon="13.195154">
        <time>1970-01-01T00:00:00+00:00</time>
        <ele>901.0</ele>
      </trkpt>
      <trkpt lat="47.247448" lon="13.195127">
        <time>1970-01-01T00:00:00+00:00</time>
        <ele>900.0</ele>
      </trkpt>
      <trkpt lat="47.24707" lon="13.19524">
        <time>1970-01-01T00:00:00+00:00</time>
        <ele>897.0</ele>
      </trkpt>
      <trkpt lat="47.24637" lon="13.195189">
        <time>1970-01-01T00:00:00+00:00</time>
        <ele>892.0</ele>
      </trkpt>
      <trkpt lat="47.246046" lon="13.195255">
        <time>1970-01-01T00:00:00+00:00</time>
        <ele>889.0</ele>
      </trkpt>
      <trkpt lat="47.246044" lon="13.195299">
        <time>1970-01-01T00:00:00+00:00</time>
        <ele>888.0</ele>
      </trkpt>
      <trkpt lat="47.245755" lon="13.195302">
        <time>1970-01-01T00:00:00+00:00</time>
        <ele>886.0</ele>
      </trkpt>
      <trkpt lat="47.245626" lon="13.195326">
        <time>1970-01-01T00:00:00+00:00</time>
        <ele>885.0</ele>
      </trkpt>
      <trkpt lat="47.245471" lon="13.195357">
        <time>1970-01-01T00:00:00+00:00</time>
        <ele>885.0</ele>
      </trkpt>
      <trkpt lat="47.245273" lon="13.19537">
        <time>1970-01-01T00:00:00+00:00</time>
        <ele>884.0</ele>
      </trkpt>
      <trkpt lat="47.245112" lon="13.195325">
        <time>1970-01-01T00:00:00+00:00</time>
        <ele>882.0</ele>
      </trkpt>
      <trkpt lat="47.244718" lon="13.195349">
        <time>1970-01-01T00:00:00+00:00</time>
        <ele>878.0</ele>
      </trkpt>
      <trkpt lat="47.244553" lon="13.195373">
        <time>1970-01-01T00:00:00+00:00</time>
        <ele>877.0</ele>
      </trkpt>
      <trkpt lat="47.244553" lon="13.19545">
        <time>1970-01-01T00:00:00+00:00</time>
        <ele>877.0</ele>
      </trkpt>
      <trkpt lat="47.244374" lon="13.195475">
        <time>1970-01-01T00:00:00+00:00</time>
        <ele>876.0</ele>
      </trkpt>
      <trkpt lat="47.24434" lon="13.195438">
        <time>1970-01-01T00:00:00+00:00</time>
        <ele>876.0</ele>
      </trkpt>
      <trkpt lat="47.244314" lon="13.195479">
        <time>1970-01-01T00:00:00+00:00</time>
        <ele>875.0</ele>
      </trkpt>
      <trkpt lat="47.244119" lon="13.195518">
        <time>1970-01-01T00:00:00+00:00</time>
        <ele>875.0</ele>
      </trkpt>
      <trkpt lat="47.244103" lon="13.195559">
        <time>1970-01-01T00:00:00+00:00</time>
        <ele>875.0</ele>
      </trkpt>
      <trkpt lat="47.244107" lon="13.195723">
        <time>1970-01-01T00:00:00+00:00</time>
        <ele>875.0</ele>
      </trkpt>
      <trkpt lat="47.244074" lon="13.195752">
        <time>1970-01-01T00:00:00+00:00</time>
        <ele>875.0</ele>
      </trkpt>
      <trkpt lat="47.244085" lon="13.195792">
        <time>1970-01-01T00:00:00+00:00</time>
        <ele>875.0</ele>
      </trkpt>
      <trkpt lat="47.244053" lon="13.195822">
        <time>1970-01-01T00:00:00+00:00</time>
        <ele>876.0</ele>
      </trkpt>
      <trkpt lat="47.244033" lon="13.195897">
        <time>1970-01-01T00:00:00+00:00</time>
        <ele>875.0</ele>
      </trkpt>
      <trkpt lat="47.243962" lon="13.195934">
        <time>1970-01-01T00:00:00+00:00</time>
        <ele>875.0</ele>
      </trkpt>
      <trkpt lat="47.243706" lon="13.196053">
        <time>1970-01-01T00:00:00+00:00</time>
        <ele>875.0</ele>
      </trkpt>
      <trkpt lat="47.243678" lon="13.196135">
        <time>1970-01-01T00:00:00+00:00</time>
        <ele>874.0</ele>
      </trkpt>
      <trkpt lat="47.243679" lon="13.196179">
        <time>1970-01-01T00:00:00+00:00</time>
        <ele>874.0</ele>
      </trkpt>
      <trkpt lat="47.243752" lon="13.196342">
        <time>1970-01-01T00:00:00+00:00</time>
        <ele>874.0</ele>
      </trkpt>
    </trkseg>
  </trk>
</gpx>
